Location: Gairloch Mountain Observatory
(46.1383°N, 60.9640°W)
Time: 01:29:25
(UTC-03:00)

CENTAUR R/B - Visible Passes

Search period start: 02 August 2014 00:00
Search period end: 12 August 2014 00:00
Orbit: 899 x 1290 km, 63.5° (Epoch: 25 July)

Date Brightness Start Highest point End Pass type
(mag) Time Alt. Az. Time Alt. Az. Time Alt. Az.
02 Aug 3.6 00:53:53 10° NW 01:00:51 39° WSW 01:02:02 37° SW visible
02 Aug 3.7 22:14:45 10° NNW 22:21:50 45° NE 22:27:59 16° ESE visible
03 Aug 3.1 00:05:28 10° NW 00:12:55 60° WSW 00:15:08 45° S visible
03 Aug 4.8 01:59:14 10° W 02:02:18 13° WSW 02:02:18 13° WSW visible
03 Aug 4.1 21:26:39 10° NNW 21:33:14 34° NNE 21:40:14 10° E visible
03 Aug 2.9 23:17:14 10° NW 23:24:49 87° SW 23:28:18 38° SSE visible
04 Aug 4.3 01:09:10 10° WNW 01:14:46 22° WSW 01:15:28 22° WSW visible
04 Aug 3.2 22:29:06 10° NW 22:36:35 67° NE 22:41:31 25° ESE visible
05 Aug 3.8 00:20:16 10° NW 00:27:02 35° WSW 00:28:41 32° SW visible
05 Aug 3.6 21:41:00 10° NNW 21:48:11 48° NE 21:54:46 14° ESE visible
05 Aug 3.3 23:31:47 10° NW 23:39:08 54° WSW 23:41:56 38° S visible
06 Aug 5.0 01:26:41 10° W 01:28:27 11° WSW 01:29:07 11° WSW visible
06 Aug 4.0 20:52:54 10° NNW 20:59:37 36° NNE 21:06:46 10° E visible
06 Aug 3.0 22:43:30 10° NW 22:51:05 80° SW 22:55:15 32° SSE visible
07 Aug 4.5 00:35:44 10° WNW 00:40:55 20° WSW 00:42:26 19° WSW visible
07 Aug 3.1 21:55:21 10° NW 22:02:53 73° NE 22:08:36 21° SE visible
07 Aug 4.1 23:46:40 10° NW 23:53:13 32° WSW 23:55:47 26° SW visible
08 Aug 3.4 21:07:16 10° NW 21:14:32 52° NE 21:22:00 11° ESE visible
08 Aug 3.5 22:58:06 10° NW 23:05:22 49° WSW 23:09:12 29° S visible
09 Aug 3.1 22:09:47 10° NW 22:17:21 73° SW 22:22:39 23° SSE visible
10 Aug 4.8 00:02:23 10° WNW 00:07:03 17° WSW 00:09:50 14° SW visible
10 Aug 3.1 21:21:37 10° NW 21:29:11 79° NE 21:36:10 15° SE visible
10 Aug 4.3 23:13:06 10° WNW 23:19:23 28° WSW 23:23:21 19° SSW visible
11 Aug 3.8 22:24:27 10° NW 22:31:34 44° WSW 22:36:56 19° S visible
